Year,Month,Day,Hour,Minute,Value (Times are PST for temperature in C)
2018,07,15,00,00,17.80
2018,07,15,00,01,17.80
2018,07,15,00,02,17.80
2018,07,15,00,03,17.80
2018,07,15,00,04,17.80
2018,07,15,00,05,17.80
2018,07,15,00,06,17.80
2018,07,15,00,07,17.80
2018,07,15,00,08,17.80
2018,07,15,00,09,17.80
2018,07,15,00,10,17.80
2018,07,15,00,11,17.80
2018,07,15,00,12,17.80
2018,07,15,00,13,17.80
2018,07,15,00,14,17.80
2018,07,15,00,15,17.80
2018,07,15,00,16,17.80
2018,07,15,00,17,17.80
2018,07,15,00,18,17.70
2018,07,15,00,19,17.70
2018,07,15,00,20,17.70
2018,07,15,00,21,17.70
2018,07,15,00,22,17.70
2018,07,15,00,23,17.70
2018,07,15,00,24,17.70
2018,07,15,00,25,17.70
2018,07,15,00,26,17.70
2018,07,15,00,27,17.70
2018,07,15,00,28,17.70
2018,07,15,00,29,17.60
2018,07,15,00,30,17.60
2018,07,15,00,31,17.60
2018,07,15,00,32,17.60
2018,07,15,00,33,17.60
2018,07,15,00,34,17.60
2018,07,15,00,35,17.60
2018,07,15,00,36,17.60
2018,07,15,00,37,17.60
2018,07,15,00,38,17.60
2018,07,15,00,39,17.60
2018,07,15,00,40,17.50
2018,07,15,00,41,17.50
2018,07,15,00,42,17.50
2018,07,15,00,43,17.50
2018,07,15,00,44,17.50
2018,07,15,00,45,17.50
2018,07,15,00,46,17.50
2018,07,15,00,47,17.50
2018,07,15,00,48,17.50
2018,07,15,00,49,17.50
2018,07,15,00,50,17.50
2018,07,15,00,51,17.50
2018,07,15,00,52,17.50
2018,07,15,00,53,17.50
2018,07,15,00,54,17.50
2018,07,15,00,55,17.50
2018,07,15,00,56,17.40
2018,07,15,00,57,17.40
2018,07,15,00,58,17.40
2018,07,15,00,59,17.40
2018,07,15,01,00,17.40
2018,07,15,01,01,17.40
2018,07,15,01,02,17.40
2018,07,15,01,03,17.40
2018,07,15,01,04,17.40
2018,07,15,01,05,17.40
2018,07,15,01,06,17.40
2018,07,15,01,07,17.40
2018,07,15,01,08,17.40
2018,07,15,01,09,17.40
2018,07,15,01,10,17.40
2018,07,15,01,11,17.40
2018,07,15,01,12,17.40
2018,07,15,01,13,17.40
2018,07,15,01,14,17.40
2018,07,15,01,15,17.40
2018,07,15,01,16,17.30
2018,07,15,01,17,17.30
2018,07,15,01,18,17.30
2018,07,15,01,19,17.30
2018,07,15,01,20,17.30
2018,07,15,01,21,17.30
2018,07,15,01,22,17.30
2018,07,15,01,23,17.30
2018,07,15,01,24,17.30
2018,07,15,01,25,17.30
2018,07,15,01,26,17.30
2018,07,15,01,27,17.30
2018,07,15,01,28,17.30
2018,07,15,01,29,17.30
2018,07,15,01,30,17.30
2018,07,15,01,31,17.30
2018,07,15,01,32,17.30
2018,07,15,01,33,17.30
2018,07,15,01,34,17.30
2018,07,15,01,35,17.30
2018,07,15,01,36,17.30
2018,07,15,01,37,17.30
2018,07,15,01,38,17.30
2018,07,15,01,39,17.30
2018,07,15,01,40,17.30
2018,07,15,01,41,17.30
2018,07,15,01,42,17.30
2018,07,15,01,43,17.30
2018,07,15,01,44,17.20
2018,07,15,01,45,17.20
2018,07,15,01,46,17.20
2018,07,15,01,47,17.20
2018,07,15,01,48,17.20
2018,07,15,01,49,17.20
2018,07,15,01,50,17.20
2018,07,15,01,51,17.20
2018,07,15,01,52,17.10
2018,07,15,01,53,17.10
2018,07,15,01,54,17.10
2018,07,15,01,55,17.10
2018,07,15,01,56,17.10
2018,07,15,01,57,17.10
2018,07,15,01,58,17.10
2018,07,15,01,59,17.10
2018,07,15,02,00,17.10
2018,07,15,02,01,17.00
2018,07,15,02,02,17.00
2018,07,15,02,03,17.00
2018,07,15,02,04,17.00
2018,07,15,02,05,17.00
2018,07,15,02,06,17.00
2018,07,15,02,07,17.00
2018,07,15,02,08,17.00
2018,07,15,02,09,17.00
2018,07,15,02,10,17.00
2018,07,15,02,11,16.90
2018,07,15,02,12,16.90
2018,07,15,02,13,16.90
2018,07,15,02,14,16.90
2018,07,15,02,15,16.90
2018,07,15,02,16,16.90
2018,07,15,02,17,16.90
2018,07,15,02,18,16.90
2018,07,15,02,19,16.90
2018,07,15,02,20,16.90
2018,07,15,02,21,16.90
2018,07,15,02,22,16.90
2018,07,15,02,23,16.90
2018,07,15,02,24,16.90
2018,07,15,02,25,16.90
2018,07,15,02,26,16.90
2018,07,15,02,27,16.90
2018,07,15,02,28,16.90
2018,07,15,02,29,16.90
2018,07,15,02,30,16.90
2018,07,15,02,31,16.90
2018,07,15,02,32,16.90
2018,07,15,02,33,16.90
2018,07,15,02,34,16.90
2018,07,15,02,35,16.90
2018,07,15,02,36,16.90
2018,07,15,02,37,16.90
2018,07,15,02,38,16.90
2018,07,15,02,39,16.90
2018,07,15,02,40,16.90
2018,07,15,02,41,16.90
2018,07,15,02,42,16.90
2018,07,15,02,43,16.80
2018,07,15,02,44,16.80
2018,07,15,02,45,16.80
2018,07,15,02,46,16.80
2018,07,15,02,47,16.80
2018,07,15,02,48,16.80
2018,07,15,02,49,16.80
2018,07,15,02,50,16.80
2018,07,15,02,51,16.80
2018,07,15,02,52,16.80
2018,07,15,02,53,16.80
2018,07,15,02,54,16.80
2018,07,15,02,55,16.70
2018,07,15,02,56,16.70
2018,07,15,02,57,16.70
2018,07,15,02,58,16.70
2018,07,15,02,59,16.70
2018,07,15,03,00,16.70
2018,07,15,03,01,16.70
2018,07,15,03,02,16.70
2018,07,15,03,03,16.60
2018,07,15,03,04,16.60
2018,07,15,03,05,16.60
2018,07,15,03,06,16.60
2018,07,15,03,07,16.60
2018,07,15,03,08,16.50
2018,07,15,03,09,16.50
2018,07,15,03,10,16.50
2018,07,15,03,11,16.50
2018,07,15,03,12,16.50
2018,07,15,03,13,16.50
2018,07,15,03,14,16.50
2018,07,15,03,15,16.50
2018,07,15,03,16,16.50
2018,07,15,03,17,16.50
2018,07,15,03,18,16.50
2018,07,15,03,19,16.50
2018,07,15,03,20,16.50
2018,07,15,03,21,16.50
2018,07,15,03,22,16.50
2018,07,15,03,23,16.50
2018,07,15,03,24,16.50
2018,07,15,03,25,16.50
2018,07,15,03,26,16.50
2018,07,15,03,27,16.40
2018,07,15,03,28,16.40
2018,07,15,03,29,16.40
2018,07,15,03,30,16.40
2018,07,15,03,31,16.40
2018,07,15,03,32,16.40
2018,07,15,03,33,16.40
2018,07,15,03,34,16.40
2018,07,15,03,35,16.40
2018,07,15,03,36,16.40
2018,07,15,03,37,16.40
2018,07,15,03,38,16.40
2018,07,15,03,39,16.40
2018,07,15,03,40,16.40
2018,07,15,03,41,16.40
2018,07,15,03,42,16.40
2018,07,15,03,43,16.40
2018,07,15,03,44,16.40
2018,07,15,03,45,16.40
2018,07,15,03,46,16.40
2018,07,15,03,47,16.40
2018,07,15,03,48,16.40
2018,07,15,03,49,16.40
2018,07,15,03,50,16.40
2018,07,15,03,51,16.40
2018,07,15,03,52,16.40
2018,07,15,03,53,16.40
2018,07,15,03,54,16.40
2018,07,15,03,55,16.40
2018,07,15,03,56,16.40
2018,07,15,03,57,16.30
2018,07,15,03,58,16.30
2018,07,15,03,59,16.30
2018,07,15,04,00,16.30
2018,07,15,04,01,16.30
2018,07,15,04,02,16.30
2018,07,15,04,03,16.30
2018,07,15,04,04,16.30
2018,07,15,04,05,16.30
2018,07,15,04,06,16.30
2018,07,15,04,07,16.30
2018,07,15,04,08,16.30
2018,07,15,04,09,16.30
2018,07,15,04,10,16.30
2018,07,15,04,11,16.30
2018,07,15,04,12,16.30
2018,07,15,04,13,16.30
2018,07,15,04,14,16.20
2018,07,15,04,15,16.20
2018,07,15,04,16,16.20
2018,07,15,04,17,16.20
2018,07,15,04,18,16.20
2018,07,15,04,19,16.20
2018,07,15,04,20,16.20
2018,07,15,04,21,16.20
2018,07,15,04,22,16.10
2018,07,15,04,23,16.10
2018,07,15,04,24,16.10
2018,07,15,04,25,16.10
2018,07,15,04,26,16.10
2018,07,15,04,27,16.10
2018,07,15,04,28,16.10
2018,07,15,04,29,16.10
2018,07,15,04,30,16.10
2018,07,15,04,31,16.00
2018,07,15,04,32,16.00
2018,07,15,04,33,16.00
2018,07,15,04,34,16.00
2018,07,15,04,35,16.00
2018,07,15,04,36,15.90
2018,07,15,04,37,15.90
2018,07,15,04,38,15.90
2018,07,15,04,39,15.90
2018,07,15,04,40,15.90
2018,07,15,04,41,15.90
2018,07,15,04,42,15.90
2018,07,15,04,43,15.80
2018,07,15,04,44,15.80
2018,07,15,04,45,15.80
2018,07,15,04,46,15.80
2018,07,15,04,47,15.80
2018,07,15,04,48,15.80
2018,07,15,04,49,15.80
2018,07,15,04,50,15.80
2018,07,15,04,51,15.80
2018,07,15,04,52,15.80
2018,07,15,04,53,15.80
2018,07,15,04,54,15.80
2018,07,15,04,55,15.80
2018,07,15,04,56,15.70
2018,07,15,04,57,15.70
2018,07,15,04,58,15.70
2018,07,15,04,59,15.70
2018,07,15,05,00,15.70
2018,07,15,05,01,15.70
2018,07,15,05,02,15.70
2018,07,15,05,03,15.70
2018,07,15,05,04,15.70
2018,07,15,05,05,15.70
2018,07,15,05,06,15.70
2018,07,15,05,07,15.70
2018,07,15,05,08,15.70
2018,07,15,05,09,15.60
2018,07,15,05,10,15.60
2018,07,15,05,11,15.70
2018,07,15,05,12,15.60
2018,07,15,05,13,15.60
2018,07,15,05,14,15.60
2018,07,15,05,15,15.60
2018,07,15,05,16,15.60
2018,07,15,05,17,15.60
2018,07,15,05,18,15.50
2018,07,15,05,19,15.50
2018,07,15,05,20,15.50
2018,07,15,05,21,15.40
2018,07,15,05,22,15.40
2018,07,15,05,23,15.40
2018,07,15,05,24,15.40
2018,07,15,05,25,15.40
2018,07,15,05,26,15.30
2018,07,15,05,27,15.30
2018,07,15,05,28,15.30
2018,07,15,05,29,15.30
2018,07,15,05,30,15.30
2018,07,15,05,31,15.20
2018,07,15,05,32,15.20
2018,07,15,05,33,15.20
2018,07,15,05,34,15.20
2018,07,15,05,35,15.20
2018,07,15,05,36,15.10
2018,07,15,05,37,15.10
2018,07,15,05,38,15.10
2018,07,15,05,39,15.10
2018,07,15,05,40,15.10
2018,07,15,05,41,15.10
2018,07,15,05,42,15.10
2018,07,15,05,43,15.10
2018,07,15,05,44,15.10
2018,07,15,05,45,15.10
2018,07,15,05,46,15.10
2018,07,15,05,47,15.10
2018,07,15,05,48,15.10
2018,07,15,05,49,15.10
2018,07,15,05,50,15.10
2018,07,15,05,51,15.10
2018,07,15,05,52,15.10
2018,07,15,05,53,15.10
2018,07,15,05,54,15.10
2018,07,15,05,55,15.10
2018,07,15,05,56,15.00
2018,07,15,05,57,15.00
2018,07,15,05,58,15.00
2018,07,15,05,59,15.00
2018,07,15,06,00,15.00
2018,07,15,06,01,15.00
2018,07,15,06,02,15.00
2018,07,15,06,03,15.00
2018,07,15,06,04,15.00
2018,07,15,06,05,15.00
2018,07,15,06,06,15.00
2018,07,15,06,07,15.00
2018,07,15,06,08,15.00
2018,07,15,06,09,15.00
2018,07,15,06,10,15.00
2018,07,15,06,11,15.00
2018,07,15,06,12,15.00
2018,07,15,06,13,15.00
2018,07,15,06,14,15.00
2018,07,15,06,15,15.00
2018,07,15,06,16,15.10
2018,07,15,06,17,15.10
2018,07,15,06,18,15.10
2018,07,15,06,19,15.10
2018,07,15,06,20,15.10
2018,07,15,06,21,15.10
2018,07,15,06,22,15.10
2018,07,15,06,23,15.10
2018,07,15,06,24,15.10
2018,07,15,06,25,15.10
2018,07,15,06,26,15.20
2018,07,15,06,27,15.20
2018,07,15,06,28,15.20
2018,07,15,06,29,15.20
2018,07,15,06,30,15.20
2018,07,15,06,31,15.20
2018,07,15,06,32,15.20
2018,07,15,06,33,15.20
2018,07,15,06,34,15.30
2018,07,15,06,35,15.20
2018,07,15,06,36,15.30
2018,07,15,06,37,15.30
2018,07,15,06,38,15.30
2018,07,15,06,39,15.30
2018,07,15,06,40,15.30
2018,07,15,06,41,15.30
2018,07,15,06,42,15.30
2018,07,15,06,43,15.30
2018,07,15,06,44,15.30
2018,07,15,06,45,15.30
2018,07,15,06,46,15.30
2018,07,15,06,47,15.30
2018,07,15,06,48,15.30
2018,07,15,06,49,15.40
2018,07,15,06,50,15.40
2018,07,15,06,51,15.40
2018,07,15,06,52,15.40
2018,07,15,06,53,15.40
2018,07,15,06,54,15.50
2018,07,15,06,55,15.50
2018,07,15,06,56,15.50
2018,07,15,06,57,15.60
2018,07,15,06,58,15.60
2018,07,15,06,59,15.60
2018,07,15,07,00,15.60
2018,07,15,07,01,15.60
2018,07,15,07,02,15.70
2018,07,15,07,03,15.70
2018,07,15,07,04,15.70
2018,07,15,07,05,15.70
2018,07,15,07,06,15.80
2018,07,15,07,07,15.80
2018,07,15,07,08,15.80
2018,07,15,07,09,15.80
2018,07,15,07,10,15.80
2018,07,15,07,11,15.80
2018,07,15,07,12,15.80
2018,07,15,07,13,15.80
2018,07,15,07,14,15.80
2018,07,15,07,15,15.90
2018,07,15,07,16,15.90
2018,07,15,07,17,15.90
2018,07,15,07,18,15.90
2018,07,15,07,19,15.90
2018,07,15,07,20,16.00
2018,07,15,07,21,16.00
2018,07,15,07,22,16.10
2018,07,15,07,23,16.10
2018,07,15,07,24,16.10
2018,07,15,07,25,16.20
2018,07,15,07,26,16.20
2018,07,15,07,27,16.20
2018,07,15,07,28,16.20
2018,07,15,07,29,16.20
2018,07,15,07,30,16.20
2018,07,15,07,31,16.30
2018,07,15,07,32,16.30
2018,07,15,07,33,16.30
2018,07,15,07,34,16.30
2018,07,15,07,35,16.40
2018,07,15,07,36,16.40
2018,07,15,07,37,16.40
2018,07,15,07,38,16.50
2018,07,15,07,39,16.50
2018,07,15,07,40,16.60
2018,07,15,07,41,16.60
2018,07,15,07,42,16.60
2018,07,15,07,43,16.70
2018,07,15,07,44,16.70
2018,07,15,07,45,16.80
2018,07,15,07,46,16.80
2018,07,15,07,47,16.80
2018,07,15,07,48,16.90
2018,07,15,07,49,16.90
2018,07,15,07,50,17.00
2018,07,15,07,51,17.10
2018,07,15,07,52,17.10
2018,07,15,07,53,17.20
2018,07,15,07,54,17.20
2018,07,15,07,55,17.20
2018,07,15,07,56,17.30
2018,07,15,07,57,17.30
2018,07,15,07,58,17.40
2018,07,15,07,59,17.50
2018,07,15,08,00,17.60
2018,07,15,08,01,17.70
2018,07,15,08,02,17.80
2018,07,15,08,03,17.90
2018,07,15,08,04,18.00
2018,07,15,08,05,18.10
2018,07,15,08,06,18.20
2018,07,15,08,07,18.30
2018,07,15,08,08,18.40
2018,07,15,08,09,18.40
2018,07,15,08,10,18.50
2018,07,15,08,11,18.60
2018,07,15,08,12,18.70
2018,07,15,08,13,18.80
2018,07,15,08,14,18.90
2018,07,15,08,15,19.00
2018,07,15,08,16,19.10
2018,07,15,08,17,19.20
2018,07,15,08,18,19.30
2018,07,15,08,19,19.30
2018,07,15,08,20,19.40
2018,07,15,08,21,19.50
2018,07,15,08,22,19.60
2018,07,15,08,23,19.80
2018,07,15,08,24,19.90
2018,07,15,08,25,20.00
2018,07,15,08,26,20.10
2018,07,15,08,27,20.10
2018,07,15,08,28,20.20
2018,07,15,08,29,20.30
2018,07,15,08,30,20.40
2018,07,15,08,31,20.50
2018,07,15,08,32,20.60
2018,07,15,08,33,20.70
2018,07,15,08,34,20.80
2018,07,15,08,35,20.90
2018,07,15,08,36,21.00
2018,07,15,08,37,21.10
2018,07,15,08,38,21.20
2018,07,15,08,39,21.40
2018,07,15,08,40,21.50
2018,07,15,08,41,21.60
2018,07,15,08,42,21.80
2018,07,15,08,43,21.90
2018,07,15,08,44,22.10
2018,07,15,08,45,22.30
2018,07,15,08,46,22.40
2018,07,15,08,47,22.60
2018,07,15,08,48,22.80
2018,07,15,08,49,22.90
2018,07,15,08,50,23.10
2018,07,15,08,51,23.30
2018,07,15,08,52,23.40
2018,07,15,08,53,23.60
2018,07,15,08,54,23.70
2018,07,15,08,55,23.80
2018,07,15,08,56,23.90
2018,07,15,08,57,24.10
2018,07,15,08,58,24.20
2018,07,15,08,59,24.30
2018,07,15,09,00,24.40
2018,07,15,09,01,24.50
2018,07,15,09,02,24.60
2018,07,15,09,03,24.70
2018,07,15,09,04,24.90
2018,07,15,09,05,24.90
2018,07,15,09,06,25.00
2018,07,15,09,07,25.10
2018,07,15,09,08,25.10
2018,07,15,09,09,25.20
2018,07,15,09,10,25.20
2018,07,15,09,11,25.30
2018,07,15,09,12,25.40
2018,07,15,09,13,25.40
2018,07,15,09,14,25.40
2018,07,15,09,15,25.50
2018,07,15,09,16,25.60
2018,07,15,09,17,25.70
2018,07,15,09,18,25.70
2018,07,15,09,19,25.70
2018,07,15,09,20,25.80
2018,07,15,09,21,25.80
2018,07,15,09,22,25.90
2018,07,15,09,23,26.00
2018,07,15,09,24,26.00
2018,07,15,09,25,26.10
2018,07,15,09,26,26.20
2018,07,15,09,27,26.30
2018,07,15,09,28,26.30
2018,07,15,09,29,26.30
2018,07,15,09,30,26.40
2018,07,15,09,31,26.40
2018,07,15,09,32,26.50
2018,07,15,09,33,26.50
2018,07,15,09,34,26.60
2018,07,15,09,35,26.60
2018,07,15,09,36,26.60
2018,07,15,09,37,26.60
2018,07,15,09,38,26.60
2018,07,15,09,39,26.70
2018,07,15,09,40,26.70
2018,07,15,09,41,26.80
2018,07,15,09,42,26.80
2018,07,15,09,43,26.90
2018,07,15,09,44,27.00
2018,07,15,09,45,27.10
2018,07,15,09,46,27.20
2018,07,15,09,47,27.30
2018,07,15,09,48,27.30
2018,07,15,09,49,27.40
2018,07,15,09,50,27.40
2018,07,15,09,51,27.50
2018,07,15,09,52,27.60
2018,07,15,09,53,27.60
2018,07,15,09,54,27.70
2018,07,15,09,55,27.70
2018,07,15,09,56,27.70
2018,07,15,09,57,27.70
2018,07,15,09,58,27.70
2018,07,15,09,59,27.80
2018,07,15,10,00,27.80
2018,07,15,10,01,27.80
2018,07,15,10,02,27.80
2018,07,15,10,03,27.80
2018,07,15,10,04,27.70
2018,07,15,10,05,27.70
2018,07,15,10,06,27.70
2018,07,15,10,07,27.70
2018,07,15,10,08,27.70
2018,07,15,10,09,27.80
2018,07,15,10,10,27.80
2018,07,15,10,11,27.80
2018,07,15,10,12,27.60
2018,07,15,10,13,27.60
2018,07,15,10,14,27.50
2018,07,15,10,15,27.50
2018,07,15,10,16,27.50
2018,07,15,10,17,27.60
2018,07,15,10,18,27.60
2018,07,15,10,19,27.60
2018,07,15,10,20,27.70
2018,07,15,10,21,27.70
2018,07,15,10,22,27.70
2018,07,15,10,23,27.80
2018,07,15,10,24,27.80
2018,07,15,10,25,27.80
2018,07,15,10,26,27.80
2018,07,15,10,27,27.90
2018,07,15,10,28,27.90
2018,07,15,10,29,28.00
2018,07,15,10,30,28.00
2018,07,15,10,31,28.10
2018,07,15,10,32,28.10
2018,07,15,10,33,28.20
2018,07,15,10,34,28.20
2018,07,15,10,35,28.30
2018,07,15,10,36,28.30
2018,07,15,10,37,28.10
2018,07,15,10,38,28.00
2018,07,15,10,39,28.00
2018,07,15,10,40,28.00
2018,07,15,10,41,28.00
2018,07,15,10,42,28.00
2018,07,15,10,43,28.10
2018,07,15,10,44,28.20
2018,07,15,10,45,28.30
2018,07,15,10,46,28.40
2018,07,15,10,47,28.50
2018,07,15,10,48,28.50
2018,07,15,10,49,28.60
2018,07,15,10,50,28.50
2018,07,15,10,51,28.40
2018,07,15,10,52,28.30
2018,07,15,10,53,28.30
2018,07,15,10,54,28.30
2018,07,15,10,55,28.30
2018,07,15,10,56,28.40
2018,07,15,10,57,28.50
2018,07,15,10,58,28.50
2018,07,15,10,59,28.50
2018,07,15,11,00,28.40
2018,07,15,11,01,28.40
2018,07,15,11,02,28.50
2018,07,15,11,03,28.50
2018,07,15,11,04,28.60
2018,07,15,11,05,28.70
2018,07,15,11,06,28.80
2018,07,15,11,07,28.90
2018,07,15,11,08,28.90
2018,07,15,11,09,28.90
2018,07,15,11,10,28.90
2018,07,15,11,11,29.00
2018,07,15,11,12,29.00
2018,07,15,11,13,29.00
2018,07,15,11,14,29.20
2018,07,15,11,15,29.20
2018,07,15,11,16,29.20
2018,07,15,11,17,29.20
2018,07,15,11,18,29.20
2018,07,15,11,19,29.20
2018,07,15,11,20,29.30
2018,07,15,11,21,29.30
2018,07,15,11,22,29.40
2018,07,15,11,23,29.50
2018,07,15,11,24,29.60
2018,07,15,11,25,29.50
2018,07,15,11,26,29.40
2018,07,15,11,27,29.40
2018,07,15,11,28,29.40
2018,07,15,11,29,29.40
2018,07,15,11,30,29.50
2018,07,15,11,31,29.40
2018,07,15,11,32,29.40
2018,07,15,11,33,29.40
2018,07,15,11,34,29.40
2018,07,15,11,35,29.50
2018,07,15,11,36,29.60
2018,07,15,11,37,29.70
2018,07,15,11,38,29.70
2018,07,15,11,39,29.70
2018,07,15,11,40,29.80
2018,07,15,11,41,29.80
2018,07,15,11,42,29.80
2018,07,15,11,43,29.80
2018,07,15,11,44,29.70
2018,07,15,11,45,29.70
2018,07,15,11,46,29.70
2018,07,15,11,47,29.70
2018,07,15,11,48,29.80
2018,07,15,11,49,29.80
2018,07,15,11,50,29.90
2018,07,15,11,51,29.90
2018,07,15,11,52,29.90
2018,07,15,11,53,30.00
2018,07,15,11,54,30.00
2018,07,15,11,55,29.90
2018,07,15,11,56,29.90
2018,07,15,11,57,29.80
2018,07,15,11,58,29.60
2018,07,15,11,59,29.50
2018,07,15,12,00,29.40
2018,07,15,12,01,29.40
2018,07,15,12,02,29.40
2018,07,15,12,03,29.40
2018,07,15,12,04,29.40
2018,07,15,12,05,29.50
2018,07,15,12,06,29.60
2018,07,15,12,07,29.70
2018,07,15,12,08,29.80
2018,07,15,12,09,29.80
2018,07,15,12,10,29.80
2018,07,15,12,11,29.70
2018,07,15,12,12,29.60
2018,07,15,12,13,29.50
2018,07,15,12,14,29.50
2018,07,15,12,15,29.50
2018,07,15,12,16,29.60
2018,07,15,12,17,29.60
2018,07,15,12,18,29.60
2018,07,15,12,19,29.60
2018,07,15,12,20,29.60
2018,07,15,12,21,29.60
2018,07,15,12,22,29.60
2018,07,15,12,23,29.50
2018,07,15,12,24,29.40
2018,07,15,12,25,29.40
2018,07,15,12,26,29.40
2018,07,15,12,27,29.40
2018,07,15,12,28,29.40
2018,07,15,12,29,29.40
2018,07,15,12,30,29.40
2018,07,15,12,31,29.50
2018,07,15,12,32,29.60
2018,07,15,12,33,29.70
2018,07,15,12,34,29.80
2018,07,15,12,35,29.90
2018,07,15,12,36,30.10
2018,07,15,12,37,30.20
2018,07,15,12,38,30.20
2018,07,15,12,39,30.20
2018,07,15,12,40,30.20
2018,07,15,12,41,30.00
2018,07,15,12,42,29.90
2018,07,15,12,43,29.90
2018,07,15,12,44,29.90
2018,07,15,12,45,29.90
2018,07,15,12,46,29.90
2018,07,15,12,47,29.90
2018,07,15,12,48,29.80
2018,07,15,12,49,29.80
2018,07,15,12,50,29.80
2018,07,15,12,51,29.80
2018,07,15,12,52,29.90
2018,07,15,12,53,29.90
2018,07,15,12,54,29.90
2018,07,15,12,55,29.90
2018,07,15,12,56,29.90
2018,07,15,12,57,29.80
2018,07,15,12,58,29.70
2018,07,15,12,59,29.70
2018,07,15,13,00,29.80
2018,07,15,13,01,30.00
2018,07,15,13,02,30.20
2018,07,15,13,03,30.30
2018,07,15,13,04,30.30
2018,07,15,13,05,30.20
2018,07,15,13,06,30.20
2018,07,15,13,07,30.30
2018,07,15,13,08,30.30
2018,07,15,13,09,30.30
2018,07,15,13,10,30.30
2018,07,15,13,11,30.40
2018,07,15,13,12,30.50
2018,07,15,13,13,30.60
2018,07,15,13,14,30.80
2018,07,15,13,15,30.90
2018,07,15,13,16,30.90
2018,07,15,13,17,30.90
2018,07,15,13,18,30.90
2018,07,15,13,19,30.90
2018,07,15,13,20,30.80
2018,07,15,13,21,30.70
2018,07,15,13,22,30.70
2018,07,15,13,23,30.70
2018,07,15,13,24,30.70
2018,07,15,13,25,30.60
2018,07,15,13,26,30.70
2018,07,15,13,27,30.70
2018,07,15,13,28,30.70
2018,07,15,13,29,30.70
2018,07,15,13,30,30.80
2018,07,15,13,31,30.80
2018,07,15,13,32,30.80
2018,07,15,13,33,30.90
2018,07,15,13,34,30.90
2018,07,15,13,35,30.90
2018,07,15,13,36,30.90
2018,07,15,13,37,30.80
2018,07,15,13,38,30.80
2018,07,15,13,39,30.70
2018,07,15,13,40,30.80
2018,07,15,13,41,30.80
2018,07,15,13,42,30.80
2018,07,15,13,43,30.80
2018,07,15,13,44,30.80
2018,07,15,13,45,30.90
2018,07,15,13,46,31.00
2018,07,15,13,47,31.10
2018,07,15,13,48,31.10
2018,07,15,13,49,31.20
2018,07,15,13,50,31.10
2018,07,15,13,51,31.10
2018,07,15,13,52,31.00
2018,07,15,13,53,30.90
2018,07,15,13,54,30.90
2018,07,15,13,55,30.80
2018,07,15,13,56,30.80
2018,07,15,13,57,30.80
2018,07,15,13,58,30.80
2018,07,15,13,59,30.80
2018,07,15,14,00,30.80
2018,07,15,14,01,30.80
2018,07,15,14,02,30.70
2018,07,15,14,03,30.70
2018,07,15,14,04,30.60
2018,07,15,14,05,30.70
2018,07,15,14,06,30.70
2018,07,15,14,07,30.70
2018,07,15,14,08,30.80
2018,07,15,14,09,30.60
2018,07,15,14,10,30.60
2018,07,15,14,11,30.50
2018,07,15,14,12,30.40
2018,07,15,14,13,30.30
2018,07,15,14,14,30.30
2018,07,15,14,15,30.30
2018,07,15,14,16,30.40
2018,07,15,14,17,30.40
2018,07,15,14,18,30.50
2018,07,15,14,19,30.50
2018,07,15,14,20,30.40
2018,07,15,14,21,30.40
2018,07,15,14,22,30.40
2018,07,15,14,23,30.40
2018,07,15,14,24,30.40
2018,07,15,14,25,30.40
2018,07,15,14,26,30.40
2018,07,15,14,27,30.50
2018,07,15,14,28,30.50
2018,07,15,14,29,30.50
2018,07,15,14,30,30.50
2018,07,15,14,31,30.60
2018,07,15,14,32,30.60
2018,07,15,14,33,30.60
2018,07,15,14,34,30.60
2018,07,15,14,35,30.60
2018,07,15,14,36,30.50
2018,07,15,14,37,30.50
2018,07,15,14,38,30.40
2018,07,15,14,39,30.40
2018,07,15,14,40,30.50
2018,07,15,14,41,30.40
2018,07,15,14,42,30.50
2018,07,15,14,43,30.50
2018,07,15,14,44,30.60
2018,07,15,14,45,30.60
2018,07,15,14,46,30.70
2018,07,15,14,47,30.70
2018,07,15,14,48,30.70
2018,07,15,14,49,30.70
2018,07,15,14,50,30.80
2018,07,15,14,51,30.90
2018,07,15,14,52,30.90
2018,07,15,14,53,31.00
2018,07,15,14,54,31.00
2018,07,15,14,55,31.10
2018,07,15,14,56,31.20
2018,07,15,14,57,31.20
2018,07,15,14,58,31.20
2018,07,15,14,59,31.30
2018,07,15,15,00,31.30
2018,07,15,15,01,31.30
2018,07,15,15,02,31.30
2018,07,15,15,03,31.20
2018,07,15,15,04,31.20
2018,07,15,15,05,31.00
2018,07,15,15,06,30.90
2018,07,15,15,07,30.90
2018,07,15,15,08,30.80
2018,07,15,15,09,30.70
2018,07,15,15,10,30.70
2018,07,15,15,11,30.60
2018,07,15,15,12,30.60
2018,07,15,15,13,30.60
2018,07,15,15,14,30.60
2018,07,15,15,15,30.70
2018,07,15,15,16,30.70
2018,07,15,15,17,30.60
2018,07,15,15,18,30.60
2018,07,15,15,19,30.60
2018,07,15,15,20,30.70
2018,07,15,15,21,30.70
2018,07,15,15,22,30.70
2018,07,15,15,23,30.70
2018,07,15,15,24,30.70
2018,07,15,15,25,30.70
2018,07,15,15,26,30.80
2018,07,15,15,27,30.80
2018,07,15,15,28,30.90
2018,07,15,15,29,30.90
2018,07,15,15,30,31.00
2018,07,15,15,31,31.10
2018,07,15,15,32,31.10
2018,07,15,15,33,31.20
2018,07,15,15,34,31.20
2018,07,15,15,35,31.10
2018,07,15,15,36,31.10
2018,07,15,15,37,31.10
2018,07,15,15,38,31.10
2018,07,15,15,39,31.10
2018,07,15,15,40,31.00
2018,07,15,15,41,30.90
2018,07,15,15,42,30.80
2018,07,15,15,43,30.80
2018,07,15,15,44,30.80
2018,07,15,15,45,30.70
2018,07,15,15,46,30.70
2018,07,15,15,47,30.70
2018,07,15,15,48,30.70
2018,07,15,15,49,30.60
2018,07,15,15,50,30.60
2018,07,15,15,51,30.50
2018,07,15,15,52,30.40
2018,07,15,15,53,30.40
2018,07,15,15,54,30.30
2018,07,15,15,55,30.30
2018,07,15,15,56,30.30
2018,07,15,15,57,30.20
2018,07,15,15,58,30.20
2018,07,15,15,59,30.20
2018,07,15,16,00,30.20
2018,07,15,16,01,30.10
2018,07,15,16,02,30.10
2018,07,15,16,03,30.10
2018,07,15,16,04,30.00
2018,07,15,16,05,30.00
2018,07,15,16,06,30.00
2018,07,15,16,07,30.10
2018,07,15,16,08,30.10
2018,07,15,16,09,30.10
2018,07,15,16,10,30.10
2018,07,15,16,11,30.20
2018,07,15,16,12,30.20
2018,07,15,16,13,30.20
2018,07,15,16,14,30.30
2018,07,15,16,15,30.30
2018,07,15,16,16,30.30
2018,07,15,16,17,30.30
2018,07,15,16,18,30.30
2018,07,15,16,19,30.30
2018,07,15,16,20,30.30
2018,07,15,16,21,30.40
2018,07,15,16,22,30.40
2018,07,15,16,23,30.40
2018,07,15,16,24,30.40
2018,07,15,16,25,30.40
2018,07,15,16,26,30.40
2018,07,15,16,27,30.40
2018,07,15,16,28,30.40
2018,07,15,16,29,30.40
2018,07,15,16,30,30.30
2018,07,15,16,31,30.30
2018,07,15,16,32,30.30
2018,07,15,16,33,30.30
2018,07,15,16,34,30.30
2018,07,15,16,35,30.30
2018,07,15,16,36,30.30
2018,07,15,16,37,30.30
2018,07,15,16,38,30.30
2018,07,15,16,39,30.30
2018,07,15,16,40,30.30
2018,07,15,16,41,30.30
2018,07,15,16,42,30.30
2018,07,15,16,43,30.30
2018,07,15,16,44,30.30
2018,07,15,16,45,30.30
2018,07,15,16,46,30.30
2018,07,15,16,47,30.30
2018,07,15,16,48,30.30
2018,07,15,16,49,30.30
2018,07,15,16,50,30.40
2018,07,15,16,51,30.40
2018,07,15,16,52,30.40
2018,07,15,16,53,30.40
2018,07,15,16,54,30.40
2018,07,15,16,55,30.50
2018,07,15,16,56,30.50
2018,07,15,16,57,30.50
2018,07,15,16,58,30.60
2018,07,15,16,59,30.60
2018,07,15,17,00,30.60
2018,07,15,17,01,30.60
2018,07,15,17,02,30.60
2018,07,15,17,03,30.60
2018,07,15,17,04,30.60
2018,07,15,17,05,30.60
2018,07,15,17,06,30.60
2018,07,15,17,07,30.60
2018,07,15,17,08,30.60
2018,07,15,17,09,30.60
2018,07,15,17,10,30.60
2018,07,15,17,11,30.50
2018,07,15,17,12,30.50
2018,07,15,17,13,30.40
2018,07,15,17,14,30.40
2018,07,15,17,15,30.40
2018,07,15,17,16,30.40
2018,07,15,17,17,30.40
2018,07,15,17,18,30.40
2018,07,15,17,19,30.40